Location: Strawberry
(45.6646°N, 111.9596°W)
Time: 14:22:54
(UTC+00:00)

AO-27 - Pass Details

Date: 14 December 2022
Orbit: 784 x 798 km, 98.9° (Epoch: 01 February)

Event Time Altitude Azimuth Distance (km) Brightness Sun altitude
Exits shadow 02:45:10 14° 350° (N) 2,106 9.9 -30.6°
Drops below altitude 10° 02:45:52 10° 349° (N) 2,381 10.2 -30.7°
Sets 02:48:12 0° 348° (NNW) 3,315 11.0 -31.1°
